Florala, AL

1:47 AM CDT on June 28, 2017 (GMT -0500)
Florala

Weather History for K0J4 - January, 2013

Change the Weather History Date:

Monday, January 21, 2013

  Actual Average (KCEW) Record (KCEW)
Temperature  
Mean Temperature 52 °F -  
Max Temperature 66 °F 60 °F 80 °F (1982)
Min Temperature 37 °F 37 °F 21 °F (1977)
Degree Days  
Heating Degree Days 14    
Growing Degree Days 2 (Base 50)    
Moisture  
Dew Point 39 °F    
Average Humidity 64    
Maximum Humidity 93    
Minimum Humidity 34    
Precipitation  
Precipitation 0.00 in - - ()
Sea Level Pressure  
Sea Level Pressure 30.16 in    
Wind  
Wind Speed 2 mph (North)    
Max Wind Speed 10 mph    
Max Gust Speed 17 mph    
Visibility 10 miles    
Events      
Averages and records for this station are not official NWS values.
T = Trace of Precipitation, MM = Missing Value Source: NWS Daily Summary

Daily Weather History Graph

Daily Weather History Graph

Search for Another Location

Airport or City:

Trip Planner

Search our weather history database for the weather conditions in past years. The results will help you decide how hot, cold, wet, or windy it might be!

Date:

Astronomy

Jan. 21, 2013 Rise Set
Actual Time 6:42 AM CST 5:11 PM CST
Civil Twilight 6:16 AM CST 5:37 PM CST
Nautical Twilight 5:47 AM CST 6:06 PM CST
Astronomical Twilight 5:18 AM CST 6:35 PM CST
Moon 12:52 PM CST (1/21) 2:09 AM CST (1/21)
Length of Visible Light 11h 20m
Length of Day
10h 28m
Waxing Gibbous, 75% of the Moon is Illuminated
Jan 21
Waxing Gibbous
Jan 26
Full
Feb 3
Last Quarter
Feb 10
New
Feb 17
First Quarter

Hourly Weather History & Observations

Time (CST) Temp. Windchill Dew Point Humidity Pressure Visibility Wind Dir Wind Speed Gust Speed Precip Events Conditions
12:58 AM 41.0 °F - 37.9 °F 89% 30.14 in 10.0 mi Calm Calm - N/A   Clear
1:58 AM 41.0 °F - 37.9 °F 89% 30.13 in 10.0 mi Calm Calm - N/A   Clear
2:58 AM 41.0 °F 39.0 °F 37.0 °F 86% 30.13 in 10.0 mi WNW 3.5 mph - N/A   Clear
3:58 AM 41.0 °F - 37.9 °F 89% 30.12 in 7.0 mi Calm Calm - N/A   Clear
4:58 AM 37.9 °F - 36.0 °F 93% 30.14 in - Calm Calm - N/A   Clear
5:58 AM 41.0 °F - 37.9 °F 89% 30.15 in - Calm Calm - N/A   Clear
6:58 AM 39.9 °F - 37.0 °F 89% 30.17 in - Calm Calm - N/A   Clear
7:58 AM 46.9 °F - 39.0 °F 74% 30.19 in - NW 3.5 mph - N/A   Clear
8:58 AM 54.0 °F - 41.0 °F 62% 30.21 in 10.0 mi North 3.5 mph - N/A   Clear
9:58 AM 57.9 °F - 39.9 °F 51% 30.22 in 10.0 mi North 6.9 mph - N/A   Clear
10:58 AM 62.1 °F - 39.0 °F 43% 30.19 in 10.0 mi NNE 6.9 mph - N/A   Clear
11:58 AM 64.0 °F - 39.0 °F 40% 30.15 in 10.0 mi North 10.4 mph 17.3 mph N/A   Clear
12:58 PM 64.9 °F - 37.9 °F 37% 30.13 in 10.0 mi Variable 5.8 mph - N/A   Clear
1:58 PM 66.0 °F - 37.0 °F 34% 30.12 in 10.0 mi Variable 3.5 mph - N/A   Clear
2:58 PM 66.0 °F - 37.0 °F 34% 30.12 in 10.0 mi North 5.8 mph - N/A   Clear
3:58 PM 64.0 °F - 39.9 °F 41% 30.13 in 10.0 mi Calm Calm - N/A   Clear
4:58 PM 60.1 °F - 41.0 °F 49% 30.14 in 10.0 mi North 3.5 mph - N/A   Clear
5:58 PM 55.0 °F - 42.1 °F 62% 30.16 in 10.0 mi NNW 3.5 mph - N/A   Clear
6:58 PM 53.1 °F - 42.1 °F 66% 30.18 in 10.0 mi Calm Calm - N/A   Clear
7:58 PM 53.1 °F - 39.9 °F 61% 30.19 in 10.0 mi North 3.5 mph - N/A   Clear
8:58 PM 52.0 °F - 39.0 °F 61% 30.20 in 10.0 mi North 3.5 mph - N/A   Clear
9:58 PM 51.1 °F - 37.9 °F 61% 30.22 in 10.0 mi NNW 3.5 mph - N/A   Clear
10:58 PM 48.9 °F - 37.0 °F 64% 30.21 in 10.0 mi North 3.5 mph - N/A   Clear
11:58 PM 46.9 °F - 37.0 °F 68% 30.21 in 10.0 mi Calm Calm - N/A   Clear